TOURFACTS.DK  
Stats and Facts from Tour de France.

Tour de France 2019 starts in 320 days
  Riders   Stages   Teams   Summits   Yearly  


 
Search by year

After 2018 - Stage 21:
 15000 starters.
  5165 different riders.
  638 teams.
  2253 stages.
  456 restdays.
  442940.60 km.
  5684 abandonnees.


Top 3
GC
Geraint Thomas83:17:13
Tom Dumoulin83:19:04
Christopher Froome83:19:37
Climb
Julian Alaphilippe170 pt.
Warren Barguil91 pt.
Rafal Majka76 pt.
Sprint
Peter Sagan477 pt.
Alexander Kristoff246 pt.
Arnaud Démare203 pt.
Youth
Pierre-Roger Latou..83:39:26
Egan Bernal83:45:05
Guillaume Martin84:01:31
Facts from Tour de France 1949
  |   Stages.  |   Stage winners.  |   Days in yellow  |   Average speed.  |   Route.  |   Teams.  |   All riders.  |   Rookies.  |  

  |   Withdrawls.  |   GC.  |   Polka  |   Green  |   White  |   Summits. (In tour)  |   Miscellaneous.  |  

Stage 3 on 02 - 07 - 1949
         Owning:    Norbert Callens    
Pick a stage:  1 2 3 4 5 6 7 8 9 10 11 12 13 14 15 16 17 18 19 20 21
  BruxellesBoulogne-sur-Mer | Dist: 211.00 km.

Average speed for all riders in stage:  33,669 km./hr.
    Place:Name:Team:Time:Km/h:
1
BELNorbert CallensBELBelgium06:05:50  +  00:00:00=34,606 
2
GERCésar MarcelakFRAWest-North06:05:50  +  00:00:00=34,606 
3
BELFlorent MathieuBELBelgium06:05:50  +  00:00:00=34,606 
44 BELRik Van SteenbergenBELBelgium06:09:13  +  00:03:23=34,289 
55 FRARaphaël GeminianiFRAFrance06:10:26  +  00:04:36=34,176 
66 SUIFerdi KüblerCHESwitzerland06:11:10  +  00:05:20=34,109 
77 ITAAlfredo MartiniITACadetti Italiens06:11:10  +  00:05:20=34,109 
88 BELStan OckersBELBelgium06:11:10  +  00:05:20=34,109 
99 FRALouis DeprezFRAFrance06:11:41  +  00:05:51=34,061 
1010 BELMarcel DupontBELAiglons Belges06:11:41  +  00:05:51=34,061 
1111 ITALuciano PezziITAItaly06:12:47  +  00:06:57=33,961 
1212 BELJoseph VerhaertBELAiglons Belges06:12:51  +  00:07:01=33,955 
1313 FRAMaurice DiotFRAFrance06:13:00  +  00:07:10=33,941 
1414 FRAEmile IdéeFRAIle De France06:13:00  +  00:07:10=33,941 
1515 FRALouis CaputFRAIle De France06:13:00  +  00:07:10=33,941 
1616 FRARoger Le NizerhyFRAWest-North06:13:00  +  00:07:10=33,941 
1717 LUXMarcel ErnzerLUXLuxembourg06:13:00  +  00:07:10=33,941 
1818 ITAGino BartaliITAItaly06:13:00  +  00:07:10=33,941 
1919 ITASerifano BiagioniITAItaly06:13:00  +  00:07:10=33,941 
2020 ITAAngelo BrignoleITAItaly06:13:00  +  00:07:10=33,941 
2121 ITAFausto CoppiITAItaly06:13:00  +  00:07:10=33,941 
2222 ITAEttore MilanoITAItaly06:13:00  +  00:07:10=33,941 
2323 ITAMario RicciITAItaly06:13:00  +  00:07:10=33,941 
2424 ITABruno PasquiniITAItaly06:13:00  +  00:07:10=33,941 
2525 ITAGino SciardisITAItaly06:13:00  +  00:07:10=33,941 
2626 BELRoger GhyselinckBELBelgium06:13:00  +  00:07:10=33,941 
2727 BELRaymond ImpanisBELBelgium06:13:00  +  00:07:10=33,941 
2828 BELLeon JomauxBELBelgium06:13:00  +  00:07:10=33,941 
2929 BELDésiré KeteleerBELBelgium06:13:00  +  00:07:10=33,941 
3030 BELMarcel KintBELBelgium06:13:00  +  00:07:10=33,941 
3131 BELRoger LambrechtBELBelgium06:13:00  +  00:07:10=33,941 
3232 BELBriek SchotteBELBelgium06:13:00  +  00:07:10=33,941 
3333 FRALouison BobetFRAFrance06:13:00  +  00:07:10=33,941 
3434 FRARobert ChapatteFRAFrance06:13:00  +  00:07:10=33,941 
3535 FRAGuy LapébieFRAFrance06:13:00  +  00:07:10=33,941 
3636 FRAJean-Apotre LazaridesFRAFrance06:13:00  +  00:07:10=33,941 
3737 FRALucien LazaridesFRAFrance06:13:00  +  00:07:10=33,941 
3838 FRALucien TeisseireFRAFrance06:13:00  +  00:07:10=33,941 
3939 FRARené ViettoFRAFrance06:13:00  +  00:07:10=33,941 
4040 SUIGeorges AeschlimannCHESwitzerland06:13:00  +  00:07:10=33,941 
4141 LUXJean DiederichLUXLuxembourg06:13:00  +  00:07:10=33,941 
4242 LUXJean GoldschmitLUXLuxembourg06:13:00  +  00:07:10=33,941 
4343 LUXJean KirchenLUXLuxembourg06:13:00  +  00:07:10=33,941 
4444 NEDWim De RuyterNLDHolland06:13:00  +  00:07:10=33,941 
4545 ESPDalmácio LangaricaESPSpain06:13:00  +  00:07:10=33,941 
4646 ESPEmilio RodriguezESPSpain06:13:00  +  00:07:10=33,941 
4747 ITAGiuseppe CeramiITACadetti Italiens06:13:00  +  00:07:10=33,941 
4848 ITAVittorio MagniITACadetti Italiens06:13:00  +  00:07:10=33,941 
4949 ITASylvio PedroniITACadetti Italiens06:13:00  +  00:07:10=33,941 
5050 LUXRené BieverLUXLuxembourg06:13:00  +  00:07:10=33,941 
5151 BELMarcel De MulderBELAiglons Belges06:13:00  +  00:07:10=33,941 
5252 BELJacques GeusBELAiglons Belges06:13:00  +  00:07:10=33,941 
5353 FRAAndré BruléFRAIle De France06:13:00  +  00:07:10=33,941 
5454 FRADominique ForliniFRAIle De France06:13:00  +  00:07:10=33,941 
5555 FRAGeorges GuillierFRAIle De France06:13:00  +  00:07:10=33,941 
5656 FRARaymond LucasFRAIle De France06:13:00  +  00:07:10=33,941 
5757 FRAJacques MarinelliFRAIle De France06:13:00  +  00:07:10=33,941 
5858 ITAAttilio RedolfiFRAIle De France06:13:00  +  00:07:10=33,941 
5959 ITAGiuseppe TaccaFRAIle De France06:13:00  +  00:07:10=33,941 
6060 FRAPierre CoganFRAWest-North06:13:00  +  00:07:10=33,941 
6161 FRAJean-Marie GoasmatFRAWest-North06:13:00  +  00:07:10=33,941 
6262 GEREdouard KlabinskiFRAWest-North06:13:00  +  00:07:10=33,941 
6363 FRAAnge Le StratFRAWest-North06:13:00  +  00:07:10=33,941 
6464 FRARoger PontetFRAWest-North06:13:00  +  00:07:10=33,941 
6565 FRARobert DesbatsFRACenter-South West06:13:00  +  00:07:10=33,941 
6666 FRAAlbert DolhatsFRACenter-South West06:13:00  +  00:07:10=33,941 
6767 FRAMarcel DussaultFRACenter-South West06:13:00  +  00:07:10=33,941 
6868 FRARoger LevequeFRACenter-South West06:13:00  +  00:07:10=33,941 
6969 FRAHenri MassalFRACenter-South West06:13:00  +  00:07:10=33,941 
7070 ITAFermo CamelliniFRASouth-East06:13:00  +  00:07:10=33,941 
7171 ITAÉdouard FachleitnerFRASouth-East06:13:00  +  00:07:10=33,941 
7272 ITANello LaurediFRASouth-East06:13:00  +  00:07:10=33,941 
7373 FRAPierre MolinerisFRASouth-East06:13:00  +  00:07:10=33,941 
7474 FRAJean ReyFRASouth-East06:13:00  +  00:07:10=33,941 
7575 FRAAntonin RollandFRASouth-East06:13:00  +  00:07:10=33,941 
7676 BELEdward Van DijckBELBelgium06:13:00  +  00:07:10=33,941 
7777 ESPJosé SerraESPSpain06:13:00  +  00:07:10=33,941 
7878 ITAArmando PeverelliITACadetti Italiens06:13:00  +  00:07:10=33,941 
7979 ESPJulián BerrenderoESPSpain06:13:00  +  00:07:10=33,941 
8080 NEDHuub SijenNLDHolland06:13:25  +  00:07:35=33,903 
8181 ESPBernardo RuízESPSpain06:13:25  +  00:07:35=33,903 
8282 FRACamille DanguillaumeFRAFrance06:13:32  +  00:07:42=33,893 
8383 SUIPierre BrambillaFRASouth-East06:13:34  +  00:07:44=33,890 
8484 NEDFrans PauwelsNLDHolland06:13:46  +  00:07:56=33,871 
8585 SUIGottfried WeilenmannCHESwitzerland06:13:49  +  00:07:59=33,867 
8686 BELJean BreuerBELAiglons Belges06:13:49  +  00:07:59=33,867 
8787 FRAJean RobicFRAWest-North06:14:35  +  00:08:45=33,798 
8888 ITAAdolphe DeleddaFRASouth-East06:19:34  +  00:13:44=33,354 
8989 FRABernard GauthierFRAFrance06:19:56  +  00:14:06=33,322 
9090 FRAGeorges MartinFRASouth-East06:21:08  +  00:15:18=33,217 
9191 SUIHans HutmacherCHESwitzerland06:21:08  +  00:15:18=33,217 
9292 ITAGiovanni CorrieriITAItaly06:22:21  +  00:16:31=33,111 
9393 ITAGuido De SantiITAItaly06:22:21  +  00:16:31=33,111 
9494 ITAVincenzo RosselloITAItaly06:22:21  +  00:16:31=33,111 
9595 FRAEloi TassinFRAWest-North06:23:23  +  00:17:33=33,022 
9696 FRAGeorges RamouluxFRACenter-South West06:24:06  +  00:18:16=32,960 
9797 FRAJean BlancFRACenter-South West06:24:06  +  00:18:16=32,960 
9898 MARCustodio Dos ReisFRACenter-South West06:24:06  +  00:18:16=32,960 
9999 FRAEdouard MullerFRAIle De France06:24:06  +  00:18:16=32,960 
100100 SUIErnst StettlerCHESwitzerland06:27:50  +  00:22:00=32,643 
101101 SUIRoger AeschlimannCHESwitzerland06:27:51  +  00:22:01=32,641 
102102 BELMarcel HendrickxBELAiglons Belges06:28:38  +  00:22:48=32,576 
103103 NEDJan LambrichsNLDHolland06:28:38  +  00:22:48=32,576 
104104 NEDHenk de HoogNLDHolland06:29:44  +  00:23:54=32,484 
105105 ITAGiuseppe AusendaITACadetti Italiens06:29:44  +  00:23:54=32,484 
106106 FRAPaul PineauFRACenter-South West06:29:44  +  00:23:54=32,484 
107107 FRARaoul RemyFRASouth-East06:29:44  +  00:23:54=32,484 
108108 FRAPaul GiguetFRASouth-East06:29:44  +  00:23:54=32,484 
109109 NEDAndré De KorverNLDHolland06:29:44  +  00:23:54=32,484 
110110 FRALouis ThiétardFRAIle De France06:33:26  +  00:27:36=32,178 
111111 BELLucien MaelfaitFRAWest-North06:37:22  +  00:31:32=31,860 
112112 FRAFrançois PersonFRAWest-North06:38:11  +  00:32:21=31,794 
113113 FRAAndre MahéFRAWest-North06:39:35  +  00:33:45=31,683 

Withdrawls: 1
 
Rider
Team
Reason
103  ITABruno GaronziFRACenter-South WestDid not finish
Todays birthdays.

1878  Jean Novo
1883  Jules Chabas
1890  Ange Aubry
1893  Roger Marye
1913  Paul Maye
1914  Lucien Vlaemynck
1915  Alphonse Antoine
1932  Rolf Graf
1953  Julio Rubiano
1959  Jos Haex
1959  Gerard Veldscholten
1963  Pablo Moreno
1964  Juan Castillo
1977  Iban Mayo
1994  Fernando Gaviria